timestamp,wind_dir_avg,wind_spd_max_dir,wind_spd_avg,wind_spd_gust,battery_voltage,lat,long
2017-12-02 00:00:00+00:00,110.0,110.0,2.37,3.19,,47.59359,-54.27349
2017-12-02 00:10:00+00:00,145.0,147.0,3.69,4.16,,47.59359,-54.27349
2017-12-02 00:20:00+00:00,102.0,101.0,3.28,4.41,,47.59359,-54.27349
2017-12-02 00:30:00+00:00,123.0,131.0,3.04,5.71,,47.59359,-54.27349
2017-12-02 00:40:00+00:00,131.0,133.0,4.6,6.13,,47.59359,-54.27349
2017-12-02 00:50:00+00:00,128.0,133.0,2.32,3.36,,47.59359,-54.27349
2017-12-02 01:00:00+00:00,126.0,129.0,2.82,4.53,,47.59359,-54.27349
2017-12-02 01:10:00+00:00,108.0,89.0,3.45,4.52,,47.59359,-54.27349
2017-12-02 01:20:00+00:00,135.0,137.0,4.47,5.26,,47.59359,-54.27349
2017-12-02 01:30:00+00:00,125.0,115.0,2.86,4.24,,47.59359,-54.27349
2017-12-02 01:40:00+00:00,132.0,142.0,3.78,5.06,,47.59359,-54.27349
2017-12-02 01:50:00+00:00,108.0,111.0,3.81,5.32,,47.59359,-54.27349
2017-12-02 02:00:00+00:00,145.0,153.0,3.09,3.95,,47.59359,-54.27349
2017-12-02 02:10:00+00:00,202.0,194.0,1.32,1.89,,47.59359,-54.27349
2017-12-02 02:20:00+00:00,267.0,270.0,1.39,1.57,,47.59359,-54.27349
2017-12-02 02:30:00+00:00,290.0,307.0,1.2,1.68,,47.59359,-54.27349
2017-12-02 02:40:00+00:00,320.0,304.0,1.76,2.26,,47.59359,-54.27349
2017-12-02 02:50:00+00:00,305.0,302.0,2.07,2.52,,47.59359,-54.27349
2017-12-02 03:00:00+00:00,343.0,339.0,1.5,1.73,,47.59359,-54.27349
2017-12-02 03:10:00+00:00,295.0,293.0,1.31,1.69,,47.59359,-54.27349
2017-12-02 03:20:00+00:00,247.0,235.0,0.85,1.12,,47.59359,-54.27349
2017-12-02 03:30:00+00:00,284.0,284.0,0.62,0.96,,47.59359,-54.27349
2017-12-02 03:40:00+00:00,288.0,267.0,1.08,1.66,,47.59359,-54.27349
2017-12-02 03:50:00+00:00,305.0,298.0,3.13,4.06,,47.59359,-54.27349
2017-12-02 04:00:00+00:00,315.0,322.0,2.92,3.55,,47.59359,-54.27349
2017-12-02 04:10:00+00:00,287.0,287.0,3.12,3.84,,47.59359,-54.27349
2017-12-02 04:20:00+00:00,302.0,300.0,3.61,4.21,,47.59359,-54.27349
2017-12-02 04:30:00+00:00,316.0,323.0,3.19,3.8,,47.59359,-54.27349
2017-12-02 04:40:00+00:00,327.0,329.0,2.63,3.71,,47.59359,-54.27349
2017-12-02 04:50:00+00:00,329.0,330.0,3.0,3.38,,47.59359,-54.27349
2017-12-02 05:00:00+00:00,317.0,313.0,3.7,4.69,,47.59359,-54.27349
2017-12-02 05:10:00+00:00,314.0,312.0,3.9,4.61,,47.59359,-54.27349
2017-12-02 05:20:00+00:00,329.0,326.0,3.48,4.22,,47.59359,-54.27349
2017-12-02 05:30:00+00:00,332.0,332.0,2.71,3.58,,47.59359,-54.27349
2017-12-02 05:40:00+00:00,339.0,344.0,2.23,2.79,,47.59359,-54.27349
2017-12-02 05:50:00+00:00,331.0,337.0,3.72,4.27,,47.59359,-54.27349
2017-12-02 06:00:00+00:00,343.0,342.0,3.65,4.12,,47.59359,-54.27349
2017-12-02 06:10:00+00:00,348.0,350.0,2.99,3.51,,47.59359,-54.27349
2017-12-02 06:20:00+00:00,334.0,332.0,2.62,3.15,,47.59359,-54.27349
2017-12-02 06:30:00+00:00,332.0,329.0,2.55,3.33,,47.59359,-54.27349
2017-12-02 06:40:00+00:00,347.0,351.0,3.49,4.0,,47.59359,-54.27349
2017-12-02 06:50:00+00:00,4.0,357.0,3.04,3.61,,47.59359,-54.27349
2017-12-02 07:00:00+00:00,7.0,7.0,3.04,3.68,,47.59359,-54.27349
2017-12-02 07:10:00+00:00,2.0,0.0,2.27,2.7,,47.59359,-54.27349
2017-12-02 07:20:00+00:00,27.0,33.0,1.78,2.56,,47.59359,-54.27349
2017-12-02 07:30:00+00:00,15.0,6.0,2.23,2.9,,47.59359,-54.27349
2017-12-02 07:40:00+00:00,14.0,8.0,2.19,2.66,,47.59359,-54.27349
2017-12-02 07:50:00+00:00,33.0,33.0,3.17,3.65,,47.59359,-54.27349
2017-12-02 08:00:00+00:00,60.0,33.0,2.95,3.78,,47.59359,-54.27349
2017-12-02 08:10:00+00:00,26.0,40.0,2.19,3.33,,47.59359,-54.27349
2017-12-02 08:20:00+00:00,32.0,28.0,1.95,2.22,,47.59359,-54.27349
2017-12-02 08:30:00+00:00,12.0,10.0,2.41,2.98,,47.59359,-54.27349
2017-12-02 08:40:00+00:00,6.0,2.0,2.37,2.75,,47.59359,-54.27349
2017-12-02 08:50:00+00:00,5.0,6.0,3.23,3.64,,47.59359,-54.27349
2017-12-02 09:00:00+00:00,347.0,344.0,4.01,4.5,,47.59359,-54.27349
2017-12-02 09:10:00+00:00,14.0,8.0,3.35,4.59,,47.59359,-54.27349
2017-12-02 09:20:00+00:00,354.0,351.0,3.13,3.71,,47.59359,-54.27349
2017-12-02 09:30:00+00:00,46.0,46.0,2.48,3.09,,47.59359,-54.27349
2017-12-02 09:40:00+00:00,22.0,19.0,2.61,3.3,,47.59359,-54.27349
2017-12-02 09:50:00+00:00,84.0,78.0,3.22,3.91,,47.59359,-54.27349
2017-12-02 10:00:00+00:00,92.0,90.0,3.02,4.68,,47.59359,-54.27349
2017-12-02 10:10:00+00:00,100.0,104.0,2.84,3.91,,47.59359,-54.27349
2017-12-02 10:20:00+00:00,90.0,92.0,2.44,3.13,,47.59359,-54.27349
2017-12-02 10:30:00+00:00,93.0,69.0,2.26,3.35,,47.59359,-54.27349
2017-12-02 10:40:00+00:00,91.0,100.0,2.47,3.05,,47.59359,-54.27349
2017-12-02 10:50:00+00:00,87.0,90.0,2.76,3.43,,47.59359,-54.27349
2017-12-02 11:00:00+00:00,91.0,93.0,1.7,2.99,,47.59359,-54.27349
2017-12-02 11:10:00+00:00,101.0,127.0,1.35,1.88,,47.59359,-54.27349
2017-12-02 11:20:00+00:00,83.0,77.0,2.38,2.98,,47.59359,-54.27349
2017-12-02 11:30:00+00:00,93.0,78.0,2.01,2.69,,47.59359,-54.27349
2017-12-02 11:40:00+00:00,63.0,66.0,2.7,3.06,,47.59359,-54.27349
2017-12-02 11:50:00+00:00,81.0,83.0,3.41,4.03,,47.59359,-54.27349
2017-12-02 12:00:00+00:00,80.0,76.0,4.21,4.89,,47.59359,-54.27349
2017-12-02 12:10:00+00:00,88.0,87.0,2.36,3.61,,47.59359,-54.27349
2017-12-02 12:20:00+00:00,82.0,81.0,3.31,4.13,,47.59359,-54.27349
2017-12-02 12:30:00+00:00,74.0,81.0,3.8,4.3,,47.59359,-54.27349
2017-12-02 12:40:00+00:00,48.0,39.0,5.35,6.25,,47.59359,-54.27349
2017-12-02 12:50:00+00:00,46.0,49.0,4.86,5.57,,47.59359,-54.27349
2017-12-02 13:00:00+00:00,55.0,53.0,5.34,6.0,,47.59359,-54.27349
2017-12-02 13:10:00+00:00,56.0,52.0,4.29,4.82,,47.59359,-54.27349
2017-12-02 13:20:00+00:00,54.0,54.0,5.19,5.89,,47.59359,-54.27349
2017-12-02 13:30:00+00:00,58.0,56.0,3.7,4.97,,47.59359,-54.27349
2017-12-02 13:40:00+00:00,76.0,67.0,3.47,4.08,,47.59359,-54.27349
2017-12-02 13:50:00+00:00,75.0,76.0,4.24,4.77,,47.59359,-54.27349
2017-12-02 14:00:00+00:00,68.0,70.0,4.59,5.12,,47.59359,-54.27349
2017-12-02 14:10:00+00:00,70.0,72.0,4.66,5.06,,47.59359,-54.27349
2017-12-02 14:20:00+00:00,59.0,58.0,4.43,5.22,,47.59359,-54.27349
2017-12-02 14:30:00+00:00,52.0,50.0,5.2,5.88,,47.59359,-54.27349
2017-12-02 14:40:00+00:00,59.0,56.0,5.27,5.98,,47.59359,-54.27349
2017-12-02 14:50:00+00:00,51.0,51.0,5.58,6.24,,47.59359,-54.27349
2017-12-02 15:00:00+00:00,58.0,68.0,5.25,6.18,,47.59359,-54.27349
2017-12-02 15:10:00+00:00,55.0,58.0,5.29,5.86,,47.59359,-54.27349
2017-12-02 15:20:00+00:00,52.0,48.0,4.76,5.35,,47.59359,-54.27349
2017-12-02 15:30:00+00:00,51.0,51.0,5.24,5.73,,47.59359,-54.27349
2017-12-02 15:40:00+00:00,53.0,52.0,4.81,5.42,,47.59359,-54.27349
2017-12-02 15:50:00+00:00,55.0,56.0,4.78,5.36,,47.59359,-54.27349
2017-12-02 16:00:00+00:00,50.0,50.0,4.62,5.38,,47.59359,-54.27349
2017-12-02 16:10:00+00:00,40.0,38.0,4.61,5.25,,47.59359,-54.27349
2017-12-02 16:20:00+00:00,33.0,42.0,4.38,5.02,,47.59359,-54.27349
2017-12-02 16:30:00+00:00,40.0,42.0,4.74,5.32,,47.59359,-54.27349
2017-12-02 16:40:00+00:00,47.0,50.0,4.56,5.34,,47.59359,-54.27349
2017-12-02 16:50:00+00:00,37.0,40.0,4.24,4.78,,47.59359,-54.27349
2017-12-02 17:00:00+00:00,42.0,44.0,5.26,6.11,,47.59359,-54.27349
2017-12-02 17:10:00+00:00,35.0,38.0,4.69,5.62,,47.59359,-54.27349
2017-12-02 17:20:00+00:00,42.0,48.0,4.37,5.11,,47.59359,-54.27349
2017-12-02 17:30:00+00:00,47.0,40.0,4.57,5.21,,47.59359,-54.27349
2017-12-02 17:40:00+00:00,49.0,50.0,4.76,5.59,,47.59359,-54.27349
2017-12-02 17:50:00+00:00,51.0,55.0,5.16,5.64,,47.59359,-54.27349
2017-12-02 18:00:00+00:00,55.0,56.0,4.4,5.05,,47.59359,-54.27349
2017-12-02 18:10:00+00:00,58.0,62.0,5.19,5.97,,47.59359,-54.27349
2017-12-02 18:20:00+00:00,56.0,55.0,4.43,5.02,,47.59359,-54.27349
2017-12-02 18:30:00+00:00,59.0,58.0,4.95,5.46,,47.59359,-54.27349
2017-12-02 18:40:00+00:00,55.0,54.0,4.89,5.48,,47.59359,-54.27349
2017-12-02 18:50:00+00:00,63.0,71.0,4.51,5.09,,47.59359,-54.27349
2017-12-02 19:00:00+00:00,64.0,62.0,3.63,4.62,,47.59359,-54.27349
2017-12-02 19:10:00+00:00,70.0,67.0,4.06,4.63,,47.59359,-54.27349
2017-12-02 19:20:00+00:00,63.0,62.0,3.61,3.98,,47.59359,-54.27349
2017-12-02 19:30:00+00:00,52.0,45.0,4.28,4.75,,47.59359,-54.27349
2017-12-02 19:40:00+00:00,36.0,37.0,4.22,5.23,,47.59359,-54.27349
2017-12-02 19:50:00+00:00,23.0,24.0,4.1,4.88,,47.59359,-54.27349
2017-12-02 20:00:00+00:00,29.0,26.0,3.93,4.61,,47.59359,-54.27349
2017-12-02 20:10:00+00:00,29.0,28.0,5.01,5.69,,47.59359,-54.27349
2017-12-02 20:20:00+00:00,37.0,37.0,5.03,6.01,,47.59359,-54.27349
2017-12-02 20:30:00+00:00,35.0,33.0,4.35,4.68,,47.59359,-54.27349
2017-12-02 20:40:00+00:00,46.0,46.0,4.4,4.88,,47.59359,-54.27349
2017-12-02 20:50:00+00:00,39.0,35.0,4.29,4.85,,47.59359,-54.27349
2017-12-02 21:00:00+00:00,45.0,51.0,4.58,5.06,,47.59359,-54.27349
2017-12-02 21:10:00+00:00,54.0,39.0,4.28,4.81,,47.59359,-54.27349
2017-12-02 21:20:00+00:00,43.0,44.0,4.78,5.42,,47.59359,-54.27349
2017-12-02 21:30:00+00:00,54.0,53.0,4.29,4.65,,47.59359,-54.27349
2017-12-02 21:40:00+00:00,59.0,56.0,4.78,5.32,,47.59359,-54.27349
2017-12-02 21:50:00+00:00,55.0,60.0,3.81,4.57,,47.59359,-54.27349
2017-12-02 22:00:00+00:00,66.0,59.0,4.28,5.38,,47.59359,-54.27349
2017-12-02 22:10:00+00:00,63.0,59.0,4.22,4.75,,47.59359,-54.27349
2017-12-02 22:20:00+00:00,56.0,59.0,5.11,5.71,,47.59359,-54.27349
2017-12-02 22:30:00+00:00,55.0,51.0,4.32,5.18,,47.59359,-54.27349
2017-12-02 22:40:00+00:00,41.0,36.0,5.01,5.65,,47.59359,-54.27349
2017-12-02 22:50:00+00:00,42.0,39.0,4.76,5.31,,47.59359,-54.27349
2017-12-02 23:00:00+00:00,36.0,27.0,4.75,6.07,,47.59359,-54.27349
2017-12-02 23:10:00+00:00,35.0,39.0,4.73,5.54,,47.59359,-54.27349
2017-12-02 23:20:00+00:00,21.0,30.0,4.73,5.55,,47.59359,-54.27349
2017-12-02 23:30:00+00:00,20.0,34.0,4.95,5.7,,47.59359,-54.27349
2017-12-02 23:40:00+00:00,8.0,6.0,4.76,5.43,,47.59359,-54.27349
2017-12-02 23:50:00+00:00,356.0,8.0,4.91,5.84,,47.59359,-54.27349
